Flag for Poland Past Weather in Gorzów Wielkopolski, Poland — Yesterday and Last 2 Weeks

Now
61 °F

Partly sunny.


Feels Like: 61 °F
Forecast: 53 / 75 °F
Wind: 2 mph from Southwest

Location: Gorzow Wlkp

Current Time: Jun 28, 2016 at 10:03:50 AM

Latest Report: Jun 28, 2016 at 8:00 AM


Visibility: 25 mi

Pressure: 30.02 "Hg

Humidity: 77%

Dew Point: 54 °F

Location of Gorzów WielkopolskiLocation

Past Weather in Gorzów Wielkopolski — Graph

°F

Gorzów Wielkopolski Temperature Yesterday

Maximum temperature yesterday: 74 °F (at 3:00 PM)
Minimum temperature yesterday: 56 °F (at 4:00 AM)
Average temperature yesterday: 66 °F

High & Low Weather Summary for the Past Weeks

 TemperatureHumidityPressure
High91 °F (Jun 24, 4:00 PM)97% (Jun 14, 8:00 AM)30.28 "Hg (Jun 14, 8:00 AM)
Low52 °F (Jun 13, 8:00 AM)30% (Jun 24, 5:00 PM)29.38 "Hg (Jun 17, 11:00 AM)
Average66 °F74%29.91 "Hg
* Reported Jun 13 8:00 AM — Jun 28 8:00 AM, Gorzów Wielkopolski, Weather by CustomWeather, © 2016

Note: Actual official high and low records may vary slightly from our data, if they occured in-between our weather recording intervals... More about our weather records

Advertising

Gorzów Wielkopolski Weather History for the Previous 24 Hours

Scroll right to see more
 ConditionsComfort  
Time TempWeatherWind HumidityBarometerVisibility
8:00 AM
Tue, Jun 28
61 °FPartly sunny.2 mph77%30.02 "Hg25 mi
7:00 AM58 °FPassing clouds.2 mph80%30.02 "Hg25 mi
6:00 AM55 °FPassing clouds.1 mph89%30.02 "Hg25 mi
5:00 AM54 °FSunny.1 mph93%30.02 "Hg7 mi
3:00 AM57 °FPassing clouds.1 mph87%30.02 "Hg11 mi
2:00 AM59 °FPassing clouds.1 mph84%30.02 "Hg12 mi
1:00 AM61 °FPassing clouds.1 mph77%30.03 "Hg16 mi
12:00 AM63 °FPassing clouds.1 mph70%30.02 "Hg19 mi
11:00 PM
Mon, Jun 27
65 °FPassing clouds.1 mph62%30.02 "Hg31 mi
10:00 PM68 °FPassing clouds.1 mph49%30.02 "Hg31 mi
9:00 PM69 °FScattered clouds.1 mph50%30.01 "Hg31 mi
8:00 PM71 °FScattered clouds.2 mph43%30.01 "Hg31 mi
7:00 PM72 °FPassing clouds.2 mph43%30.01 "Hg31 mi
6:00 PM73 °FPartly sunny.2 mph41%30.01 "Hg31 mi
5:00 PM72 °FOvercast.3 mph42%30.01 "Hg31 mi
4:00 PM73 °FOvercast.2 mph41%30.01 "Hg31 mi
3:00 PM74 °FPartly sunny.3 mph43%30.03 "Hg25 mi
2:00 PM72 °FScattered clouds.3 mph46%30.03 "Hg25 mi
1:00 PM71 °FOvercast.3 mph52%30.04 "Hg22 mi
12:00 PM70 °FOvercast.3 mph60%30.04 "Hg22 mi
11:00 AM68 °FOvercast.2 mph58%30.05 "Hg19 mi
10:00 AM67 °FOvercast.2 mph69%30.04 "Hg16 mi
Weather by CustomWeather, © 2016

See weather overviewHow to use our weather pages